Location: Sobotiste
(48.7170°N, 17.4000°E)
Time: 19:01:18
(UTC+02:00)

CUTE-I - Pass Details

Date: 20 March 2026
Orbit: 804 x 818 km, 98.7° (Epoch: 18 April)

Event Time Altitude Azimuth Distance (km) Brightness Sun altitude
Rises 18:43:32 0° 213° (SSW) 3,314 ? -7.5°
Reaches altitude 10° 18:46:50 10° 235° (SW) 2,387 ? -8.0°
Maximum altitude 18:49:58 16° 272° (W) 2,008 ? -8.5°
Drops below altitude 10° 18:53:08 10° 309° (NW) 2,394 ? -9.0°
Sets 18:56:28 0° 331° (NNW) 3,329 ? -9.6°
